User: anonymous   Login
Location: Unspecified
(0.0000°N, 0.0000°E)
Time: 08:36:46
(UTC+00:00)
Language:

NOAA 17 - Orbit

View from above orbital plane
View from above orbital plane
View from above satellite
View from above satellite

Ground track
Ground track

The orbit data is extracted from the following two-line orbital elements,

1 27453U 02032A   14295.44453991  .00000288  00000-0  14084-3 0  7770
2 27453 098.3222 288.5051 0012434 156.1126 204.0634 14.24796145640804
Epoch (UTC): 22 October 2014 10:40:08
Eccentricity: 0.0012434
inclination: 98.3222°
perigee height: 800 km
apogee height: 818 km
right ascension of ascending node: 288.5051°
argument of perigee: 156.1126°
revolutions per day: 14.24796145
mean anomaly at epoch: 204.0634°
orbit number at epoch: 64080

The dashed part of the orbit path shows where the satellite is in the earth's shadow,  

DLR